Regional Weather Roundup
Issued by NWS

Home | Current Version | Previous Version | Text Only | Print | Product List | Glossary On
Versions: 1 2 3 4 5 6 7 8 9 10 11 12 13 14 15 16 17 18 19 20 21 22 23 24 25 26 27 28 29 30 31 32 33 34 35 36 37 38 39 40 41 42 43 44 45 46 47 48 49 50
000
ASUS43 KTOP 250008
RWRKS

WEATHER ROUNDUP FOR KANSAS
NATIONAL WEATHER SERVICE GOODLAND KS
700 PM CDT WED AUG 24 2016

NOTE:  "FAIR" INDICATES FEW OR NO CLOUDS BELOW 12,000 FEET WITH NO
SIGNIFICANT WEATHER AND/OR OBSTRUCTIONS TO VISIBILITY.

KSZ001>006-013>018-027>032-041>047-250100-
NORTHWEST KANSAS

CITY           SKY/WX    TMP DP  RH WIND       PRES   REMARKS
GOODLAND       CLOUDY    67  43  41 NE14      30.15F
6HR MIN TEMP:  63; 6HR MAX TEMP:  72; 6HR PCP:  0.04;

HAYS           PTSUNNY   70  55  60 NE14      30.06S
HILL CITY      CLOUDY    69  53  56 NE12      30.11S
6HR MIN TEMP:  66; 6HR MAX TEMP:  73; 6HR PCP:  0.08;

RUSSELL        PTSUNNY   71  63  75 NE10      30.03F
6HR MIN TEMP:  70; 6HR MAX TEMP:  77; 6HR PCP: TRACE;

$$

KSZ061>065-074>080-084>089-250100-
SOUTHWEST KANSAS

CITY           SKY/WX    TMP DP  RH WIND       PRES   REMARKS
DODGE CITY     MOSUNNY   76  65  68 N17       30.01R
6HR MIN TEMP:  76; 6HR MAX TEMP:  87;

ELKHART          N/A     80  54  40 MISG        N/A
GARDEN CITY    MOSUNNY   74  61  63 NE20G26   30.03R
6HR MIN TEMP:  74; 6HR MAX TEMP:  86;

GREAT BEND     CLOUDY    75  63  64 NE13      30.00F
LIBERAL        CLOUDY    82  55  39 SE5       30.03R
PRATT          CLOUDY    82  65  55 CALM      29.98F
6HR MIN TEMP:  76; 6HR MAX TEMP:  83;

$$

KSZ066>073-081>083-090>101-250100-
SOUTHEAST KANSAS

CITY           SKY/WX    TMP DP  RH WIND       PRES   REMARKS
CHANUTE        SUNNY     89  70  53 S9        29.92F
6HR MIN TEMP:  89; 6HR MAX TEMP:  93;

COFFEYVILLE    MOSUNNY   93  67  42 S14G21    29.93F HX  96
6HR MIN TEMP:  92; 6HR MAX TEMP:  98;

HUTCHINSON     CLOUDY    80  70  71 N12       29.97S
6HR MIN TEMP:  79; 6HR MAX TEMP:  88; 6HR PCP: TRACE;

MEDICINE LODGE   N/A     82  64  54 SE6       29.94F
NEWTON         CLOUDY    72  70  94 NE10      29.99F
PARSONS        SUNNY     90  67  46 S6        29.94F
6HR MIN TEMP:  90; 6HR MAX TEMP:  96;

WICHITA INTL   CLOUDY    85  68  56 NW15      29.94S
6HR MIN TEMP:  84; 6HR MAX TEMP:  94;

WICHITA JABRA  CLOUDY    78  69  73 NW12      29.96R
6HR MIN TEMP:  75; 6HR MAX TEMP:  90; 6HR PCP:  0.25;

WICHITA MCCONL MOSUNNY   82  69  64 NE14      29.96R
WINFIELD       TSTM      77  69  76 W18G25    29.98R
6HR MIN TEMP:  77; 6HR MAX TEMP:  94; 6HR PCP: TRACE;

$$

KSZ007>012-019>026-033>040-048>060-102>105-250100-
NORTHEAST KANSAS

CITY           SKY/WX    TMP DP  RH WIND       PRES   REMARKS
CONCORDIA      CLOUDY    64  61  90 E9        30.02F
6HR MIN TEMP:  62; 6HR MAX TEMP:  75; 6HR PCP:  0.40;

EMPORIA        TSTM      80  72  76 W6        29.95F
6HR MIN TEMP:  81; 6HR MAX TEMP:  90; 6HR PCP:  0.01;

LAWRENCE       PTSUNNY   79  74  84 NE6       29.93F THUNDER
6HR MIN TEMP:  78; 6HR MAX TEMP:  89; 6HR PCP: TRACE;

MANHATTAN      PTSUNNY   73  66  78 N9G22     29.98F
6HR MIN TEMP:  73; 6HR MAX TEMP:  86; 6HR PCP: TRACE;

MARYSVILLE     CLOUDY    66  64  94 N10       30.04F
OLATHE IND     TSTM      76  71  85 S23G35    29.96F VSB 1/2
6HR MIN TEMP:  81; 6HR MAX TEMP:  88; 6HR PCP:  0.04;

OLATHE EXE     PTSUNNY   84  72  67 E6        29.94F THUNDER
6HR MIN TEMP:  81; 6HR MAX TEMP:  87; 6HR PCP: TRACE;

SALINA         PTSUNNY   74  65  73 N16G23    29.98F
6HR MIN TEMP:  74; 6HR MAX TEMP:  87; 6HR PCP: TRACE;

TOPEKA BILLARD TSTM      78  73  84 W12       29.96S
6HR MIN TEMP:  77; 6HR MAX TEMP:  88; 6HR PCP:  0.09;

TOPEKA FORBES  TSTM      78  68  71 VRB3      29.96S
6HR MIN TEMP:  73; 6HR MAX TEMP:  91; 6HR PCP:  0.56;

$$




USA.gov is the U.S. government's official web portal to all federal, state and local government web resources and services.